Find Starlink 34518

NORAD ID: 64480 Int'l Des: 2025-133 Owner: SPXS Country: US Constellation: starlink operational
LEOCIRCULAR

当前视图

正在加载3D地球...

About Starlink 34518

Starlink 34518 (NORAD 64480) is a starlink constellation satellite (v2 mini) launched Jun 23, 2025 by SPXS of US. It operates in LEO, CIRCULAR orbit with a mass of 575.00 kg.

即将过境

Passes for default location (London). Set your location on the main map for personalized predictions.

高度历史

Loading altitude history...

两行轨道根数

1 64480U 25133J 26265.35935704 .00022590 00000-0 67753-3 0 9992
2 64480 53.1586 280.8661 0001998 56.7245 303.3949 15.34408031 71175
Epoch: Sep 22, 2026 • Age: 20 hours

当前状态

高度 461.7 km
远地点 / 近地点 N/A
速度 7.64 km/s
星下点 16.59°N, 147.9°W
发射日期 Jun 23, 2025
运行时间 1.2 years
类型 internet

技术详情

分类 Payload
质量 575.00 kg
干质量 530.00 kg
长度 0.30 m
跨度 29.00 m
形状 ? Box + pan
制造商 SPXS
平台类型 Starlink V2MO
阶段状态 In Orbit
所有者/国家 SPXS/US

Most Searched